Wind_Speed
25 25 24 23 22 21 21 21 19 17 15 14 12 12 12 11 10 9 8 8 7 6 6 7 6 6 6 6 6 6 6 7 8 8 8 9 9 9 9 10 10 9 9 9 9 8 9 9 9 9 9 9 8 8 8 8 7 7 7 7 7 7 6 7 8 9 9 9 10 10 10 12 12 11 12 12 12 14 16 16 16 16 15 15 17
23 24 24 23 22 19 18 19 19 18 16 15 14 13 14 14 12 10 9 9 8 8 7 7 7 6 7 7 7 7 7 7 8 9 9 10 10 9 9 10 10 9 10 10 10 9 9 10 10 9 9 9 9 9 9 8 8 8 8 8 8 8 7 7 8 10 11 11 10 11 11 12 12 12 13 13 14 16 17 15 14 13 14 15 14
21 22 23 22 20 18 17 17 18 17 17 17 16 14 14 15 15 12 10 9 9 9 9 8 8 7 8 8 7 7 8 8 9 9 9 10 10 10 9 9 9 9 9 10 9 9 9 10 10 9 9 9 10 9 9 9 9 9 9 9 10 9 8 9 9 10 12 12 11 11 12 12 13 14 15 16 16 17 16 15 15 14 14 14 12
20 20 21 20 19 18 17 16 15 16 16 16 16 15 13 14 16 15 11 9 9 9 9 9 9 9 9 9 9 9 9 9 10 10 10 10 10 10 10 10 10 10 10 10 9 9 9 10 10 9 9 10 11 10 9 9 9 9 10 10 10 10 9 10 11 10 11 13 12 13 15 17 17 16 17 18 18 18 18 18 18 16 16 15 12
18 17 17 18 18 18 16 14 14 15 16 15 15 15 12 12 14 15 13 10 9 9 10 10 10 10 10 10 11 11 10 10 11 11 11 11 11 11 11 12 12 12 12 12 11 11 11 11 11 10 10 11 11 11 10 11 11 11 11 10 10 10 10 10 12 11 11 12 13 14 16 17 17 18 18 17 17 18 20 20 19 18 19 18 14
13 13 13 13 15 17 16 15 14 14 14 14 13 13 13 12 12 13 14 13 11 10 10 11 12 12 12 12 12 12 11 12 12 12 12 12 12 12 13 13 14 14 14 13 13 13 13 13 12 12 12 12 11 11 11 12 12 11 12 12 11 11 11 11 11 12 11 11 12 13 14 14 15 17 18 18 18 19 19 20 20 20 21 21 18
10 9 9 9 10 13 13 13 13 12 13 13 12 11 10 10 10 11 12 13 13 12 12 12 14 14 14 14 13 12 12 12 13 14 13 14 14 14 14 14 15 15 15 14 13 13 13 13 14 14 14 15 14 13 13 12 12 12 12 13 12 12 12 11 11 11 10 11 11 11 12 13 14 16 18 20 20 19 15 15 18 21 22 22 22
13 10 9 7 8 10 10 11 13 15 15 15 14 11 9 10 11 11 11 11 12 12 12 12 12 13 14 14 13 12 12 12 13 13 14 14 15 15 16 16 16 15 16 16 15 14 15 14 14 15 16 16 16 15 15 15 14 14 14 14 15 15 14 12 11 11 11 11 11 11 12 13 15 17 17 17 16 15 12 11 14 19 21 21 23
14 13 10 7 7 9 10 12 15 16 16 15 14 13 12 12 12 12 12 11 11 11 12 12 11 11 12 13 13 12 13 13 12 12 13 14 15 15 16 17 17 17 17 17 17 17 17 16 15 16 17 17 17 17 17 17 18 18 18 18 17 17 15 13 12 11 11 11 12 12 12 12 13 14 14 13 14 17 17 15 15 17 17 18 22
11 10 10 10 11 11 11 12 15 17 17 16 15 15 15 14 12 13 13 13 13 14 14 15 13 11 12 12 12 12 13 13 13 12 12 13 13 14 15 17 18 19 19 19 19 19 18 18 19 20 21 20 19 19 18 18 18 19 19 19 19 18 16 14 13 12 12 12 13 13 13 14 15 15 14 15 16 17 16 15 14 16 15 15 18
8 8 11 13 15 14 13 14 15 15 15 16 16 16 16 16 15 15 13 13 14 14 14 15 14 13 12 12 12 12 11 12 14 14 13 12 12 11 13 15 16 18 19 19 20 20 18 18 18 19 21 21 21 20 20 19 18 18 18 18 19 19 18 16 16 14 13 13 14 14 14 16 18 18 17 17 16 15 15 15 14 15 14 12 14
7 7 9 11 12 14 14 14 13 12 13 13 13 14 15 17 17 17 15 14 13 12 12 13 14 13 12 12 10 8 8 12 15 15 15 14 12 11 11 11 12 14 15 16 18 19 19 18 16 15 17 20 22 21 21 21 19 18 18 17 17 17 18 18 19 18 16 15 15 16 16 17 18 19 19 18 17 17 17 16 15 14 13 13 13
12 12 9 7 6 8 10 10 9 9 9 10 9 9 10 11 13 14 14 15 13 11 10 11 12 12 10 9 7 4 5 9 11 12 13 13 13 12 11 11 11 12 14 15 16 17 19 20 19 18 17 20 22 22 21 21 20 19 18 18 17 17 17 17 18 19 19 18 17 18 20 19 19 21 23 23 22 20 18 18 16 15 14 13 14
18 15 13 12 10 10 10 9 8 7 7 7 6 6 6 5 6 6 7 8 9 9 9 9 10 10 9 8 6 4 6 9 9 9 10 11 11 12 12 11 11 11 13 15 15 16 18 18 19 20 20 20 21 21 19 19 19 19 19 18 18 19 19 18 18 18 19 20 20 22 23 23 22 23 24 24 23 21 19 19 18 17 18 18 20
20 18 17 15 14 13 13 13 11 10 8 7 8 8 7 6 6 5 4 4 4 5 6 6 6 7 7 7 5 5 9 13 12 12 13 12 11 11 11 11 11 11 12 13 13 15 16 16 17 18 19 19 19 18 17 15 16 17 18 18 18 18 19 19 18 17 18 19 19 21 22 22 22 22 21 20 21 22 21 21 21 21 22 22 22
21 20 19 17 15 13 12 13 13 12 10 8 8 9 9 8 7 6 5 3 2 2 2 2 3 4 4 5 5 5 7 10 12 13 14 14 13 12 11 11 11 12 12 12 13 13 13 14 14 15 16 17 16 15 14 13 14 15 16 17 17 16 18 20 20 19 19 20 20 21 22 23 23 22 20 19 19 21 21 19 19 20 19 17 16
20 20 20 19 17 15 14 12 12 12 10 9 9 10 9 9 9 9 8 8 7 7 6 5 3 3 3 5 6 5 2 2 4 6 8 9 9 9 9 10 10 11 11 12 13 13 13 13 13 14 14 14 14 14 13 12 14 15 15 16 15 16 18 18 18 21 23 23 24 25 26 26 25 23 21 19 18 19 21 21 18 17 16 14 15
19 20 20 19 19 18 17 15 13 11 9 8 9 10 10 9 10 11 12 13 14 13 11 10 8 7 7 7 7 5 5 4 3 3 3 3 3 3 4 6 6 7 7 8 9 10 11 12 13 13 13 12 13 14 13 13 14 15 14 14 14 16 17 15 15 21 25 26 26 26 26 26 25 24 22 21 19 18 22 24 21 17 16 15 17
20 20 19 19 19 19 19 18 15 12 11 11 11 11 12 11 11 12 14 14 14 13 11 11 9 7 7 7 5 4 4 2 2 3 4 3 2 1 1 2 3 4 5 5 6 6 7 8 9 10 10 11 12 13 12 12 13 13 13 12 13 15 14 13 17 22 24 24 25 25 24 25 25 25 24 23 21 20 22 25 23 19 17 17 17
19 18 18 18 18 18 19 19 18 16 16 15 15 14 14 14 14 14 14 14 13 12 12 12 11 9 7 7 6 6 6 4 3 3 3 3 2 2 2 2 3 4 5 6 6 7 7 6 7 8 9 10 10 10 11 11 11 12 11 11 12 14 14 17 21 22 23 25 26 26 26 25 24 23 21 21 21 21 22 23 23 22 20 18 19
16 16 16 16 16 16 17 18 18 18 18 18 17 17 17 17 16 16 15 14 13 11 10 11 11 10 9 8 8 8 7 6 5 4 5 5 4 4 4 4 3 3 4 5 6 6 6 5 6 9 11 11 11 12 12 13 14 14 13 13 15 16 18 21 22 21 22 23 23 23 24 23 21 19 17 17 17 17 18 19 20 21 20 19 19
14 14 14 14 14 14 14 15 15 15 15 16 16 16 16 16 17 17 17 17 16 13 11 9 9 10 10 10 10 9 8 9 9 9 9 9 8 8 7 7 6 5 5 5 5 6 6 5 6 10 12 12 12 12 13 13 14 15 14 15 15 15 16 18 19 20 20 20 19 19 19 19 19 18 17 16 16 16 16 16 17 18 20 20 19
11 12 13 13 13 12 12 12 12 13 12 12 13 13 13 13 14 15 16 16 15 13 12 9 8 9 10 11 11 10 10 11 11 11 11 11 10 9 9 8 7 6 6 5 6 7 7 7 8 9 10 11 11 12 12 12 13 13 12 13 13 12 13 16 17 18 17 17 17 17 17 17 18 17 16 16 16 16 16 17 17 19 20 22 22
10 10 11 11 11 11 11 10 11 11 11 11 11 11 11 11 11 12 12 12 11 11 10 9 9 9 9 10 11 12 11 11 11 11 11 11 11 11 10 9 8 7 7 7 7 8 8 9 9 9 8 9 9 10 10 10 11 11 11 11 11 12 13 14 14 14 13 14 14 15 15 15 16 16 16 17 16 17 17 18 18 20 21 22 23
11 10 10 10 9 9 9 9 9 9 9 9 9 9 9 9 10 10 9 9 9 9 9 9 9 9 9 9 10 11 11 11 11 11 11 11 11 11 10 10 9 8 8 8 8 8 8 8 8 8 8 7 6 6 7 7 7 7 9 10 11 11 11 11 12 12 14 15 15 15 15 15 15 16 17 17 16 17 17 18 18 19 20 22 23
11 10 10 8 7 7 6 7 7 7 7 7 7 7 7 7 8 9 8 8 8 8 8 8 8 8 8 8 8 10 11 12 12 12 11 12 12 11 11 11 10 10 9 9 8 8 7 8 8 8 8 8 8 8 8 8 8 9 11 12 12 11 10 11 12 12 13 14 15 15 16 15 15 15 16 15 15 15 16 18 18 18 18 19 21
9 9 8 7 6 6 5 5 5 5 5 5 6 6 6 6 7 7 7 7 7 7 7 7 6 6 7 7 7 8 10 12 13 13 12 12 12 12 12 12 11 11 11 11 10 9 8 9 9 9 9 9 9 10 11 11 11 12 13 14 14 14 13 14 14 12 13 14 15 16 16 15 15 16 15 15 15 15 16 17 17 17 17 18 21
8 7 6 6 6 5 5 5 4 4 5 5 5 5 5 5 6 7 7 7 6 6 6 6 6 6 5 5 6 6 7 9 11 12 11 11 11 11 11 11 11 12 11 11 11 10 9 10 11 12 12 11 11 11 12 13 14 13 13 14 14 14 15 16 15 15 17 18 18 17 16 16 17 16 16 16 17 17 17 17 18 18 16 17 19
7 6 6 5 5 5 4 4 4 4 5 5 6 7 6 5 6 7 7 7 6 5 5 5 5 5 5 5 5 5 5 7 9 9 10 10 9 9 9 9 10 10 9 10 10 9 8 9 10 11 11 11 11 11 11 12 12 12 12 13 12 12 14 14 14 17 20 20 18 16 17 18 18 17 17 17 17 17 17 18 20 21 19 17 18
7 6 5 5 5 5 5 5 5 5 5 6 7 8 9 8 7 7 7 7 6 6 5 5 5 5 6 6 5 5 5 6 7 7 8 8 8 9 8 8 9 8 8 9 8 7 6 7 7 9 9 9 9 10 10 10 11 11 12 12 11 11 12 12 12 16 19 17 15 15 17 18 17 16 17 18 18 18 19 18 19 21 20 18 19
6 6 5 5 5 5 5 6 6 6 6 6 7 8 8 8 7 6 5 5 5 5 5 5 5 6 7 6 5 5 5 5 5 6 7 7 7 7 7 8 8 8 9 8 6 5 6 6 6 7 8 7 8 9 9 9 10 10 11 11 10 10 11 11 12 15 16 14 14 15 15 15 15 15 16 17 18 19 20 19 19 19 20 19 19
7 6 6 6 5 5 5 6 6 6 6 6 5 5 5 4 5 5 5 5 5 5 6 6 6 7 8 7 5 4 4 4 4 5 5 5 6 6 6 7 7 8 9 8 6 5 6 6 6 7 7 7 7 8 8 9 9 10 10 10 10 10 10 11 13 14 13 13 14 14 14 14 15 16 16 16 17 18 18 19 19 19 20 20 19
6 6 6 6 6 6 5 5 5 5 6 5 5 4 3 3 3 3 4 5 5 5 6 6 6 7 7 6 4 3 3 3 2 3 2 3 4 4 5 6 6 7 8 7 5 5 5 5 5 6 6 7 7 8 8 9 10 10 10 10 11 11 11 12 13 13 12 13 13 13 14 14 15 16 16 16 16 17 17 18 18 18 19 20 20
6 6 7 7 6 6 5 5 5 5 5 5 5 4 4 3 3 3 4 5 5 5 6 6 6 6 6 4 2 2 2 2 2 2 1 1 2 3 4 5 5 6 7 6 5 5 5 5 5 5 6 6 7 8 8 9 10 11 11 11 11 12 12 12 12 12 13 13 13 13 14 14 15 15 16 16 16 16 16 16 16 16 17 19 19
6 6 7 6 6 5 5 4 4 4 5 4 4 4 4 4 4 3 3 4 4 3 2 3 3 3 2 1 0 1 2 3 3 3 1 1 1 2 4 5 5 6 6 6 5 5 5 6 6 6 6 7 7 8 8 9 10 10 11 11 12 13 13 13 13 13 14 14 14 14 14 14 14 14 15 16 17 16 16 16 16 16 17 18 19
6 6 5 5 4 4 3 3 3 3 3 3 3 3 3 3 3 3 3 3 4 4 3 2 1 1 1 2 3 4 4 4 4 3 3 2 2 2 4 6 7 7 7 6 6 6 6 6 7 8 8 8 9 9 9 10 11 11 12 12 13 13 13 13 14 14 14 14 14 14 14 14 14 14 15 15 16 16 17 17 17 18 18 19 20
5 4 4 3 3 2 2 2 2 2 2 2 2 3 3 4 4 4 4 4 4 5 6 5 5 5 5 4 5 6 7 7 6 5 4 4 3 3 5 7 7 7 7 8 7 7 7 7 7 8 9 9 10 11 12 13 13 14 14 14 14 14 14 14 14 14 14 14 15 15 15 15 15 15 15 16 16 17 17 17 18 19 19 20 20
4 3 2 2 2 1 2 2 2 2 2 3 3 4 5 5 5 6 6 6 5 6 7 6 6 8 8 6 6 7 8 8 7 6 5 5 5 6 7 7 7 7 7 8 8 8 8 8 8 8 9 10 11 12 13 14 15 15 15 15 15 15 15 15 15 14 14 15 15 15 16 16 15 15 16 16 17 17 17 17 18 19 20 20 19
3 2 2 2 1 1 1 2 2 3 3 4 4 4 5 6 7 7 7 7 6 7 8 7 7 7 8 7 7 8 8 7 7 6 7 7 7 7 7 7 7 7 7 8 8 8 9 9 9 10 10 11 11 12 13 13 13 14 15 16 16 15 15 15 15 14 15 15 16 16 16 16 16 17 17 17 18 18 19 18 18 18 19 20 20
2 1 1 1 0 1 1 2 2 3 3 3 4 4 4 5 6 7 7 7 7 7 7 7 7 7 6 6 7 7 7 7 7 7 7 7 7 7 7 8 8 8 8 9 9 9 10 11 11 11 11 12 13 14 14 13 13 13 14 15 16 17 16 15 15 15 16 16 16 17 17 17 18 18 18 18 18 19 20 20 20 19 19 19 21
1 1 1 2 2 2 3 3 3 3 4 4 3 3 3 4 5 5 6 6 6 6 6 6 6 6 5 5 6 6 6 7 8 7 7 8 8 8 8 9 9 9 10 10 10 11 11 11 11 12 12 13 13 14 15 15 15 15 15 16 17 17 17 17 16 16 16 17 17 17 18 18 19 19 20 20 20 20 20 20 21 20 20 20 20
2 1 2 3 4 3 4 4 3 4 5 4 3 3 4 4 3 3 3 3 4 5 6 6 6 6 5 5 5 5 6 8 8 8 8 9 9 9 9 9 9 9 9 10 11 11 11 11 12 12 12 13 13 14 15 16 16 16 17 17 17 17 17 17 17 17 17 18 18 18 19 20 20 21 22 22 21 21 21 21 21 22 22 21 21
2 2 2 3 4 5 5 5 5 5 5 4 4 4 3 2 2 2 2 3 4 5 6 6 6 6 6 5 6 6 7 8 8 8 8 8 8 9 9 9 9 9 9 9 10 10 10 11 12 12 12 13 14 15 15 16 16 17 17 17 18 18 18 18 18 18 18 19 19 20 21 21 21 22 22 22 22 22 22 23 23 24 23 23 21
2 2 3 3 4 5 5 4 4 4 3 2 2 2 2 1 1 2 3 4 4 5 5 6 6 6 6 7 7 7 7 7 8 8 8 9 9 9 9 9 9 9 9 10 10 10 11 11 12 13 13 14 14 15 15 16 16 16 17 18 18 18 18 18 18 18 19 19 20 21 21 21 22 22 23 22 22 22 23 25 25 25 25 23 22
2 2 2 2 3 3 3 2 2 1 1 2 2 2 2 2 2 3 4 4 5 5 6 6 7 7 7 8 8 8 8 8 8 8 8 8 8 9 9 9 9 10 10 10 11 11 11 12 13 13 14 14 14 15 15 15 16 16 16 17 17 18 18 18 19 19 19 20 20 21 22 22 22 23 23 23 22 22 24 25 26 26 25 25 24
2 1 1 2 2 2 2 2 2 2 2 2 2 2 3 3 4 4 5 6 6 6 7 7 7 7 7 7 7 7 8 7 7 7 7 8 9 10 10 10 10 10 11 11 12 12 12 13 14 14 15 15 15 15 15 15 15 15 15 16 17 17 17 17 18 18 19 19 20 21 22 23 23 23 23 23 23 24 24 24 24 25 25 25 27
2 2 2 3 3 3 3 2 1 1 2 3 4 4 5 5 5 5 5 5 5 5 5 5 5 5 6 6 7 7 7 7 8 8 9 10 11 11 10 11 11 11 12 12 12 12 13 14 15 15 16 16 16 16 15 15 14 14 14 15 15 16 17 18 19 19 19 19 20 21 22 23 24 24 23 22 23 24 25 25 24 24 25 25 27
4 3 4 4 4 4 3 2 2 3 3 3 4 4 4 4 3 3 3 3 4 4 4 4 5 5 6 6 6 7 8 8 9 9 10 10 10 10 10 10 11 11 12 12 12 13 14 15 15 15 15 15 15 15 14 14 14 14 15 15 15 16 18 19 20 20 21 21 22 22 22 23 24 24 24 24 24 25 26 25 25 25 25 25 26
5 5 5 5 5 4 3 2 2 1 1 1 2 2 2 2 2 2 2 3 3 3 4 4 4 5 6 6 7 7 8 8 9 9 9 9 9 9 10 10 10 11 12 13 14 14 14 14 14 14 14 14 14 13 13 14 14 14 14 14 15 17 19 19 19 20 21 21 21 20 21 23 25 26 26 26 26 25 25 25 25 25 25 25 25
6 6 6 6 5 4 3 2 2 2 2 2 2 2 2 1 1 1 2 2 2 2 3 3 4 5 6 6 6 7 7 8 8 9 9 9 9 9 9 10 11 12 13 14 13 13 12 13 13 13 13 13 13 13 13 14 14 13 14 15 17 19 20 20 21 23 23 22 22 22 22 23 25 26 27 27 26 26 26 25 25 25 25 24 25
7 6 6 6 5 4 4 3 3 3 3 3 2 2 2 1 0 1 2 2 2 2 3 3 4 5 5 5 6 6 7 8 8 8 8 9 9 10 10 11 12 13 13 12 12 12 12 12 12 12 13 13 13 13 13 13 12 14 17 19 20 21 21 22 24 26 26 27 28 27 24 23 23 24 26 26 26 26 27 27 26 26 25 25 26
Wind_Direction
217 220 221 223 227 226 223 222 223 225 227 230 234 236 239 241 243 247 249 250 249 243 239 240 245 246 245 244 249 257 259 255 255 259 262 265 268 268 267 272 276 277 279 282 283 283 283 282 281 283 287 288 284 278 278 280 278 279 287 293 296 294 285 275 280 289 293 296 303 306 314 321 321 321 323 322 321 323 325 326 327 327 327 327 327
215 218 219 223 226 225 223 223 225 227 228 231 234 237 242 245 247 250 253 251 251 250 247 246 248 248 247 250 253 256 259 260 263 269 271 273 272 269 268 272 276 278 279 280 281 282 283 283 283 285 286 289 290 283 279 281 283 284 289 295 300 300 294 287 288 293 297 301 305 307 312 317 317 316 319 320 321 325 327 328 327 325 326 329 328
215 218 220 222 225 225 225 226 228 229 229 232 235 237 241 246 248 251 252 251 254 254 251 250 253 254 253 256 256 254 256 258 263 272 276 276 273 267 266 269 271 273 275 278 279 280 281 282 283 284 284 288 292 290 285 284 286 289 291 294 297 300 300 299 296 294 299 304 309 311 315 317 315 316 321 325 326 329 331 331 331 328 329 332 329
218 220 221 223 224 225 227 226 227 228 229 233 237 238 240 244 249 251 249 247 249 252 252 253 257 259 259 261 262 261 261 260 262 266 271 273 272 271 271 273 273 272 274 277 278 278 278 280 283 283 284 287 290 291 289 288 289 291 293 294 295 295 296 299 300 297 297 302 307 311 315 317 319 321 326 329 329 329 329 331 332 332 332 333 327
218 220 223 225 227 229 228 224 224 228 230 233 239 243 243 242 246 248 246 243 243 246 248 251 256 258 261 265 267 267 267 266 265 266 268 272 274 273 273 276 277 277 278 279 280 279 278 277 281 283 283 285 288 289 289 291 294 294 296 298 298 298 297 298 301 299 293 295 300 307 313 316 320 325 328 329 328 327 329 332 333 333 335 336 328
216 216 220 225 231 235 234 229 227 229 231 233 237 242 242 241 243 244 244 245 245 245 246 248 254 258 261 266 270 270 270 270 271 271 270 271 274 276 275 276 278 279 279 280 279 279 278 278 281 283 283 283 284 287 290 293 294 292 294 300 301 301 299 297 299 300 294 291 294 301 307 312 316 322 327 328 326 325 327 330 332 331 333 334 331
200 200 208 218 228 234 234 231 229 227 230 234 235 236 238 237 238 238 239 243 245 246 247 249 255 260 262 264 266 268 271 274 276 277 274 272 274 277 277 276 277 278 279 279 277 275 274 277 280 281 283 285 285 286 289 291 292 291 292 297 300 300 300 297 296 296 293 292 293 295 300 306 310 314 320 325 326 325 324 324 326 327 329 330 330
191 189 193 203 216 223 224 225 229 233 237 241 239 235 234 235 237 238 238 240 243 245 247 248 252 256 257 259 261 263 270 277 280 281 279 277 276 277 279 279 278 278 280 281 279 278 277 276 276 277 282 287 288 288 287 287 289 290 292 296 299 299 298 296 295 295 294 294 295 295 296 300 305 309 314 318 320 319 315 308 309 316 320 324 326
203 203 198 196 209 220 221 222 228 232 233 236 236 236 238 239 240 240 239 239 241 242 246 248 250 250 251 256 258 259 266 273 278 283 285 283 281 279 281 284 282 280 283 284 282 283 284 281 277 279 285 290 291 290 289 289 290 289 290 294 296 297 295 293 291 291 291 291 291 293 293 293 298 303 304 304 306 309 311 309 304 306 309 310 317
207 204 202 206 213 217 218 221 225 226 225 226 228 231 234 234 234 237 238 239 240 244 249 251 250 250 249 251 251 251 257 264 269 277 281 282 281 278 280 286 288 286 285 286 286 286 285 284 285 289 293 293 292 292 293 294 293 291 290 291 290 291 290 289 288 286 287 289 290 292 292 292 295 298 297 298 301 304 306 305 301 304 306 303 309
199 194 205 216 219 219 222 226 229 229 228 228 229 231 234 235 235 237 238 238 239 243 247 248 247 247 247 248 247 244 245 252 258 264 269 271 272 272 274 281 286 287 285 284 285 286 285 285 288 293 297 298 298 298 298 298 297 296 295 293 290 288 284 282 283 283 282 282 285 287 289 289 292 296 297 298 300 301 303 303 299 299 302 300 302
147 151 183 208 218 221 223 228 233 235 233 232 233 233 235 237 238 239 239 239 240 238 239 242 243 242 243 245 247 245 241 247 254 259 263 267 269 268 266 266 269 275 278 279 282 286 287 287 287 287 291 296 300 302 302 302 303 302 299 296 292 287 283 278 277 278 278 280 282 283 282 283 286 291 294 297 300 302 301 300 296 293 293 294 295
112 115 129 152 177 193 199 204 209 216 221 224 223 221 223 229 233 236 238 239 238 236 237 239 239 237 237 238 239 242 245 252 258 261 263 268 271 271 271 269 264 264 269 273 278 283 287 290 291 290 289 294 300 303 304 305 306 307 304 301 297 294 290 285 279 276 274 273 274 276 278 280 281 286 293 297 297 297 296 296 296 293 291 289 288
106 106 110 113 115 125 138 144 143 149 163 172 171 172 180 190 202 212 224 230 231 232 234 237 240 240 242 246 249 251 254 258 263 263 262 266 271 275 276 276 274 271 272 275 277 279 284 287 289 291 292 294 299 302 303 303 304 305 303 299 297 296 296 294 290 286 280 274 270 272 279 282 282 286 293 296 293 289 288 290 291 290 289 290 292
97 97 101 105 109 113 119 121 118 114 118 125 128 134 141 147 160 173 186 201 215 225 225 229 236 237 238 242 245 250 257 262 264 264 264 264 266 273 277 276 276 276 277 279 279 280 281 282 283 287 290 292 294 297 299 298 296 295 294 292 290 291 292 291 290 288 287 284 278 275 279 285 286 287 290 291 289 288 288 289 290 290 290 292 294
93 95 97 101 105 109 114 118 118 116 115 113 114 116 117 118 125 134 142 157 181 208 213 216 224 225 224 219 210 220 252 267 268 265 264 263 263 268 273 274 273 271 270 273 276 277 278 279 280 283 285 288 291 292 292 289 285 284 283 285 286 285 285 288 290 291 292 293 291 289 288 290 292 291 289 285 283 285 287 287 286 286 285 285 287
92 92 91 93 96 98 101 103 106 112 116 115 115 116 112 109 110 112 110 107 106 107 103 105 124 140 142 153 165 170 152 355 305 279 272 266 261 263 269 272 272 269 268 269 270 272 273 274 277 279 282 285 286 285 282 277 276 276 275 279 281 279 282 286 291 294 295 294 294 294 293 292 292 292 289 285 282 283 281 277 274 275 276 276 283
89 87 85 85 86 88 91 94 97 101 105 106 109 110 108 107 109 110 107 102 99 98 98 100 104 102 102 116 131 128 101 68 19 360 351 313 272 261 267 274 275 272 273 274 273 273 273 272 272 271 273 275 275 276 275 271 271 273 274 277 278 279 283 288 289 292 294 294 294 293 293 293 292 291 288 283 281 278 274 270 270 273 272 269 277
92 90 87 87 89 88 87 91 96 100 101 102 104 104 102 102 103 101 99 96 94 93 95 99 100 95 90 101 111 104 93 70 354 2 8 5 24 38 350 330 316 303 298 292 285 283 280 278 276 271 268 272 275 276 276 274 274 276 276 276 276 279 286 291 292 295 297 296 296 297 297 296 296 295 292 288 285 279 273 271 270 268 265 267 274
95 95 92 91 92 90 87 88 92 99 103 104 104 104 102 100 98 95 93 91 88 90 94 95 96 96 94 92 85 73 70 60 22 353 339 341 21 59 63 45 6 336 324 314 304 295 287 287 294 290 283 283 285 285 284 284 284 285 283 280 279 284 292 296 297 299 300 298 298 298 297 297 297 295 292 290 289 286 284 283 279 270 263 265 272
96 97 95 93 91 90 89 88 90 95 100 102 100 97 95 95 95 97 99 99 95 96 98 96 96 99 101 100 92 81 74 66 51 33 15 7 13 33 46 46 32 14 356 343 332 320 310 307 303 294 289 290 291 290 290 289 288 285 282 280 283 289 296 299 301 304 304 303 301 299 297 296 295 291 287 285 284 282 282 283 281 275 268 264 269
96 95 94 94 93 92 92 91 91 91 93 96 95 92 90 91 94 99 105 108 108 107 106 100 96 92 90 92 92 87 77 65 53 43 37 30 21 20 28 29 19 12 5 354 342 333 331 322 294 283 284 288 290 290 290 290 288 283 278 278 284 291 296 299 304 306 306 304 301 298 296 294 291 289 287 285 283 281 279 277 276 275 272 269 268
100 98 97 96 97 99 98 97 95 91 88 88 88 87 86 87 91 99 105 107 106 103 99 96 89 79 72 69 67 64 60 53 44 40 40 38 33 31 35 37 29 20 14 1 346 338 335 327 310 297 291 287 284 282 282 282 283 283 281 280 283 288 292 296 300 301 302 302 298 294 293 293 292 291 290 290 291 290 287 284 281 278 277 276 274
102 101 102 101 101 104 107 110 108 100 92 88 86 85 86 86 89 95 98 99 97 91 85 79 72 65 59 54 51 50 49 46 40 35 35 35 34 36 38 41 40 35 29 18 5 355 348 341 336 331 320 307 299 294 292 293 293 293 293 292 292 295 298 299 298 297 296 294 290 287 287 290 292 292 294 296 296 294 292 291 288 286 283 282 280
98 98 99 101 101 102 107 115 119 115 105 96 91 90 88 88 91 93 91 89 86 80 73 69 65 61 56 51 46 45 47 48 43 38 36 35 34 33 34 37 37 35 32 25 12 6 4 3 3 5 7 5 360 353 350 351 349 342 336 332 323 313 307 302 297 294 292 291 290 289 289 290 292 293 294 295 295 295 297 297 295 293 290 287 286
94 92 90 92 93 95 99 104 112 120 117 106 99 96 90 87 89 90 86 82 78 73 69 64 62 61 60 58 53 50 52 54 52 50 48 47 45 42 40 40 39 37 37 30 18 12 14 14 16 22 28 30 27 20 14 13 16 16 11 4 353 339 328 320 310 302 299 299 299 297 296 297 298 297 296 295 295 297 300 301 300 300 298 295 293
91 85 81 79 78 79 84 87 94 108 116 115 111 103 93 87 86 82 77 75 72 70 68 66 64 65 68 69 67 60 56 54 54 55 54 52 50 47 43 41 39 38 36 29 22 18 13 9 10 13 15 14 13 11 6 2 3 4 1 357 354 350 345 340 334 329 328 326 321 316 312 309 305 303 302 301 299 300 302 302 301 300 301 301 298
93 82 76 75 73 72 77 81 85 95 104 114 118 109 97 89 84 79 74 69 67 69 71 69 67 69 78 83 77 69 61 53 50 50 49 47 45 42 38 33 30 32 31 23 18 19 15 10 12 12 11 10 8 6 4 1 1 1 354 349 349 345 339 337 336 334 336 337 336 333 328 322 316 312 310 306 303 304 305 304 302 300 300 300 296
101 91 84 80 79 80 85 90 97 106 113 117 113 106 104 103 96 90 84 78 76 79 83 83 79 81 89 91 81 71 63 52 46 45 43 40 38 37 35 32 28 28 22 11 9 13 13 12 13 12 9 8 4 1 359 356 356 356 353 352 353 348 343 344 340 333 334 338 338 333 331 329 326 322 318 314 311 310 310 308 305 303 301 296 291
110 105 100 95 93 94 98 103 105 113 127 132 119 107 102 101 100 98 91 84 81 84 91 98 101 103 104 99 92 86 73 56 45 41 40 36 32 29 28 27 25 21 14 8 9 15 14 11 13 11 6 4 1 357 354 351 349 348 348 351 353 349 347 350 344 335 336 340 336 329 328 328 327 325 323 322 320 318 315 311 306 303 301 297 293
125 123 120 118 117 114 113 113 114 116 123 132 133 126 115 104 97 92 88 92 98 102 108 111 115 123 125 114 98 84 72 57 43 39 37 33 27 23 19 18 17 14 13 15 21 26 19 14 15 11 5 4 3 358 353 351 349 345 344 345 348 347 346 346 342 337 337 335 331 329 329 327 325 323 321 320 320 319 318 316 313 309 305 301 297
136 135 135 132 132 132 128 126 126 128 129 131 138 145 147 139 122 100 89 99 112 120 126 127 126 133 136 128 111 90 73 59 44 38 36 29 22 17 11 8 7 7 13 23 31 31 22 19 17 12 7 5 3 358 354 351 347 343 342 340 341 342 341 339 336 334 332 330 328 328 327 325 324 321 319 319 319 319 319 320 319 316 311 307 304
142 142 144 142 139 138 138 137 135 136 140 143 145 152 170 187 179 146 117 117 120 120 125 130 130 133 136 130 115 100 88 70 49 40 36 24 13 6 359 355 354 360 13 28 34 27 21 19 15 12 8 4 359 355 351 348 344 340 337 335 334 334 333 333 332 330 328 327 325 324 324 324 323 321 320 321 321 319 318 319 319 319 318 317 317
136 140 143 143 139 133 133 139 140 137 137 141 145 151 155 161 172 176 165 157 149 130 116 113 119 129 136 132 103 70 58 41 21 13 13 345 342 345 343 340 344 356 12 22 21 14 13 12 7 5 4 359 353 349 344 342 341 338 334 330 329 328 328 329 330 329 326 324 323 322 322 323 323 322 321 321 321 320 319 318 320 321 320 320 321
129 134 137 136 132 127 128 135 139 138 138 140 145 149 151 151 156 166 180 197 202 182 126 104 107 122 137 155 286 332 354 1 357 348 323 263 280 324 326 317 317 330 343 348 347 346 348 346 344 346 347 346 345 342 339 336 335 333 331 327 324 323 324 325 324 323 322 320 319 319 319 319 320 321 320 319 320 320 320 320 320 319 317 317 316
134 137 139 136 134 135 137 141 144 141 144 154 168 175 178 184 189 185 186 200 217 231 242 249 261 297 321 323 320 317 320 325 330 330 309 271 263 294 302 298 299 305 310 314 317 319 322 323 324 327 330 332 334 335 334 333 330 329 328 325 320 317 317 317 316 316 315 314 314 315 315 315 316 317 317 316 317 317 317 316 316 315 313 314 313
137 137 138 139 137 142 154 161 161 155 157 177 210 221 221 228 234 232 231 233 234 242 253 262 269 273 281 300 318 318 314 316 322 326 309 281 270 275 282 287 292 296 299 302 305 306 306 307 310 314 318 321 324 326 327 328 327 325 325 323 318 313 311 311 310 309 308 308 310 311 312 311 311 312 312 311 311 312 313 313 313 311 311 312 312
133 132 142 144 129 134 174 186 185 195 212 231 246 246 241 243 246 245 247 251 252 254 261 268 270 273 279 289 303 310 314 319 322 317 304 291 283 280 281 283 285 288 292 298 302 303 302 303 304 307 311 314 317 320 322 324 323 322 321 319 316 312 310 310 309 307 305 305 306 307 308 307 307 308 307 305 305 306 307 308 310 310 310 311 310
131 128 154 164 139 129 202 215 224 243 254 256 257 252 245 245 249 251 250 251 254 260 267 272 274 279 288 296 302 308 312 313 308 299 296 294 289 285 288 290 289 289 291 294 297 300 301 301 302 305 308 311 313 314 316 317 317 317 316 315 314 312 311 310 309 307 305 304 304 305 304 303 303 304 303 301 301 302 302 303 303 304 304 306 305
152 157 202 230 250 284 280 264 250 256 267 266 256 250 243 242 247 249 247 248 253 260 267 274 276 281 294 306 311 313 311 305 300 298 297 295 293 291 291 292 294 295 294 293 294 297 298 299 301 303 305 308 310 312 313 314 313 312 312 311 310 308 308 307 306 304 303 302 302 302 302 301 302 302 300 298 298 298 298 298 297 297 297 298 300
189 228 264 281 291 292 284 271 261 272 285 280 264 251 240 234 234 236 240 247 254 260 267 273 275 283 299 305 304 304 302 296 294 296 295 291 291 292 292 294 298 299 296 294 295 297 297 298 299 300 302 305 307 308 310 311 312 311 310 308 305 304 303 303 302 301 300 300 300 300 299 300 301 300 299 297 297 297 295 294 294 294 294 294 296
202 229 271 283 289 290 282 275 275 283 286 281 264 244 230 217 210 217 234 249 257 263 270 272 273 283 295 296 294 300 301 294 289 290 291 289 290 291 292 294 297 297 296 296 297 298 298 298 297 297 299 300 302 304 306 307 308 308 307 305 302 300 299 299 299 298 298 298 298 298 298 298 298 297 296 296 295 295 294 293 293 294 294 293 294
202 229 261 273 277 279 280 280 277 275 273 268 254 238 220 192 175 194 231 251 260 264 268 273 277 283 287 295 308 311 301 289 285 286 287 288 289 290 290 292 295 297 297 296 296 296 295 294 294 294 295 295 297 300 301 302 303 303 303 301 299 297 297 297 297 298 298 298 297 297 296 296 296 296 295 295 294 293 292 291 291 291 291 290 291
204 238 256 268 273 277 278 271 262 257 253 243 234 228 216 185 187 231 249 262 269 269 268 273 282 285 283 289 299 299 289 284 284 285 286 288 289 289 291 293 295 297 297 296 295 295 294 293 292 291 291 291 293 294 295 296 297 297 297 297 297 296 295 296 296 298 298 298 298 297 296 295 295 294 293 293 292 292 291 291 290 289 288 286 286
204 238 254 265 267 263 255 243 232 216 184 175 187 228 254 259 257 261 267 273 276 276 274 273 277 281 281 282 285 285 284 284 284 284 287 291 291 290 292 294 295 297 298 296 295 294 293 293 292 291 291 291 290 290 290 290 289 290 291 293 293 293 294 295 297 298 298 298 297 297 296 294 293 292 291 290 290 290 289 288 288 288 287 287 286
190 216 233 234 219 189 165 157 132 107 126 191 226 259 267 266 274 280 279 276 275 277 277 274 273 277 280 280 281 284 286 288 289 288 290 292 292 291 291 291 293 296 296 294 293 292 291 292 292 292 291 291 291 291 290 289 288 288 288 288 289 292 294 297 298 299 299 298 297 297 296 294 292 290 289 289 289 289 287 286 285 285 286 287 288
178 186 191 191 179 159 149 162 178 212 246 250 260 267 267 268 275 277 274 273 275 278 278 277 280 283 283 282 284 286 288 290 291 289 288 289 291 291 291 291 293 295 295 293 292 292 293 293 293 292 291 292 292 291 291 291 291 291 290 290 292 293 294 297 301 302 302 300 298 296 295 294 293 292 290 289 288 288 287 285 283 282 283 285 287
166 169 173 176 176 176 187 216 245 260 260 258 261 261 257 255 256 257 262 273 279 278 277 281 286 288 288 288 290 290 289 290 289 288 289 292 292 292 295 296 296 296 296 296 294 295 295 295 293 292 293 293 292 293 293 293 294 294 296 297 296 292 292 296 300 302 302 301 299 297 295 292 291 290 288 286 284 284 283 281 280 279 279 280 281
164 165 169 171 173 179 192 207 218 229 234 233 225 216 204 202 214 245 276 284 280 280 282 284 288 292 295 297 297 294 292 292 292 291 292 294 294 296 299 300 300 299 300 299 298 298 297 295 295 295 295 295 295 296 296 296 298 301 301 299 297 298 303 307 308 306 306 303 299 296 294 291 288 286 284 282 280 280 278 278 277 277 275 275 277
157 158 162 165 165 166 170 174 171 156 141 138 147 154 157 170 216 289 307 302 292 289 290 290 294 298 300 301 300 299 297 296 295 296 296 296 297 300 301 302 304 305 303 302 301 301 299 299 300 299 298 298 300 300 299 302 305 305 303 303 306 313 319 322 318 315 313 310 304 298 293 288 284 283 281 280 279 277 275 274 274 274 273 273 277
149 152 156 159 162 165 167 163 152 140 133 130 133 143 151 164 267 319 319 310 302 296 295 298 300 300 300 301 302 303 303 300 299 299 299 298 299 302 303 305 308 308 305 305 306 304 303 303 304 303 302 303 302 301 304 307 306 303 305 311 317 323 327 326 323 320 318 314 310 305 297 288 282 281 279 279 279 278 277 277 275 273 272 273 276
Height
852 854 856 858 860 861 863 864 866 867 868 870 871 872 873 874 875 876 877 878 879 880 881 881 882 883 884 885 886 887 888 889 889 890 890 891 891 891 892 892 892 893 893 893 894 894 894 895 895 895 895 894 894 894 894 894 893 893 893 892 891 891 890 889 888 886 884 884 883 882 881 880 880 879 878 877 876 875 874 873 871 870 869 868 866
851 853 855 857 859 861 862 863 864 866 867 869 870 871 872 873 874 875 876 877 878 879 880 881 881 882 883 884 885 886 886 887 888 889 889 889 890 890 891 891 891 891 892 892 892 893 893 893 894 894 894 894 893 893 893 893 893 892 892 891 891 890 889 889 888 886 884 883 883 882 881 880 879 878 877 876 875 873 872 871 870 869 868 866 865
850 852 854 856 858 860 861 862 863 865 866 867 868 870 871 872 873 874 875 876 877 878 879 880 881 881 882 883 883 884 885 886 886 887 887 888 888 889 889 890 890 890 891 891 891 892 892 892 892 893 893 893 892 892 892 892 892 891 891 891 890 889 889 888 888 886 885 883 882 882 880 880 878 877 876 875 873 872 871 870 869 868 867 865 864
849 851 852 854 856 858 859 861 862 864 865 866 867 868 870 870 871 873 874 875 876 877 878 879 880 880 881 882 882 883 883 884 885 885 886 886 887 888 888 888 889 889 889 890 890 890 891 891 891 891 891 891 891 891 891 891 891 890 890 890 889 889 888 887 887 886 885 883 882 881 880 878 877 876 875 874 872 871 870 869 868 867 865 864 863
848 850 852 853 855 856 858 860 861 862 863 864 865 867 868 869 870 871 873 874 875 876 877 878 879 879 880 881 881 882 882 883 883 884 884 885 885 886 886 887 887 888 888 888 888 889 889 889 889 889 890 889 889 890 890 890 890 889 889 889 888 888 887 886 885 885 884 882 881 880 879 877 876 875 874 873 871 870 869 868 866 865 864 863 862
848 849 851 852 854 855 856 858 859 860 861 863 864 865 867 868 869 870 871 872 874 875 876 876 877 878 879 879 880 880 881 881 882 882 883 883 884 884 885 885 885 886 886 886 887 887 887 887 887 888 888 888 888 888 888 888 888 888 888 888 887 887 886 885 884 883 882 881 880 878 877 876 875 873 872 872 870 869 868 866 865 864 862 861 860
847 849 850 852 853 854 855 856 857 858 859 861 862 864 865 866 867 868 869 870 872 873 874 875 875 876 877 877 878 878 879 879 880 880 881 881 882 882 883 883 884 884 884 884 885 885 885 885 886 886 886 886 886 887 887 886 886 886 886 886 885 885 885 884 883 882 881 880 879 877 876 875 873 872 871 870 869 868 866 865 863 862 861 859 858
845 846 848 850 852 853 853 854 855 856 857 859 860 862 863 864 865 866 867 868 870 871 872 873 873 874 874 875 876 876 877 877 877 878 879 879 880 880 881 881 882 882 882 882 883 883 883 883 884 884 884 884 884 885 885 885 885 884 884 884 884 883 883 882 882 881 880 879 877 876 874 873 872 871 869 868 867 866 865 864 863 861 859 858 856
843 844 846 848 850 851 852 852 853 854 855 856 858 859 861 862 863 864 865 866 867 868 869 870 871 872 872 873 873 874 874 874 875 875 876 877 878 878 879 879 879 880 880 880 880 880 881 881 881 881 881 882 882 882 882 883 883 882 882 882 882 881 881 881 880 879 878 877 876 874 873 871 870 869 868 867 866 865 864 863 861 859 858 856 854
843 845 845 846 848 850 851 851 852 853 853 854 855 857 858 860 861 862 863 864 865 865 866 867 868 869 870 871 871 871 872 872 872 873 873 874 875 876 876 876 877 877 877 877 878 878 878 878 878 879 879 879 879 879 880 880 880 880 880 880 880 880 879 879 878 877 877 875 874 873 872 870 869 868 867 865 865 863 862 861 859 858 856 854 852
843 845 845 845 846 848 849 849 850 851 852 853 853 854 856 858 859 860 861 862 862 863 864 864 865 867 868 869 869 869 870 870 869 870 870 871 872 873 874 874 874 874 875 875 875 875 876 876 876 876 876 876 876 876 876 877 877 877 877 877 878 878 878 877 876 875 875 873 872 871 870 868 867 866 865 864 863 862 861 860 858 856 855 853 850
842 844 844 844 844 845 846 847 848 849 850 851 851 852 854 855 857 858 859 860 861 861 862 862 863 864 865 866 867 868 868 867 867 867 867 868 869 869 870 871 871 872 872 872 872 873 873 873 874 874 874 873 873 874 874 874 874 874 874 874 874 874 875 875 874 873 873 871 870 869 868 867 865 864 864 863 862 861 859 858 856 855 854 852 850
842 843 843 843 843 843 845 846 847 848 848 849 849 850 852 853 854 856 857 858 859 860 860 861 861 862 863 864 866 867 867 865 865 865 865 865 866 866 867 868 868 869 869 869 870 870 870 871 871 871 871 871 871 871 871 871 871 871 871 871 871 871 871 871 871 871 870 870 869 867 865 865 863 862 862 861 860 859 858 856 855 853 852 850 849
843 844 844 844 843 844 845 845 846 847 847 848 848 849 850 852 853 854 855 856 857 858 859 859 860 861 862 863 864 864 864 863 863 863 862 862 863 863 864 865 865 866 866 867 867 868 868 868 868 868 868 868 868 868 868 869 868 868 868 867 867 867 867 867 867 867 867 867 866 864 863 862 861 860 859 859 858 857 856 854 853 851 849 848 846
844 845 845 845 845 845 845 845 846 846 847 848 848 849 850 851 852 853 854 856 857 857 857 858 858 859 860 862 862 862 861 860 861 861 860 860 860 861 861 862 862 863 864 864 865 865 865 866 866 865 865 865 866 866 866 866 866 865 865 864 864 864 864 863 863 863 863 863 862 861 860 859 858 857 857 856 855 854 853 852 850 848 846 844 843
846 847 847 847 847 847 847 847 847 847 848 848 849 850 851 852 852 853 854 855 856 857 857 857 858 858 859 860 860 860 859 859 859 858 858 858 858 858 859 859 860 860 861 861 862 862 863 863 863 863 863 863 863 863 863 863 863 862 862 862 862 861 861 860 860 860 860 859 858 857 856 855 855 854 853 853 852 851 851 849 848 846 844 842 840
848 848 848 848 848 847 847 848 847 847 848 849 850 851 852 853 853 853 854 855 855 856 856 856 857 857 858 858 858 858 858 858 858 857 856 856 855 856 856 857 858 858 858 859 860 860 861 861 861 862 862 861 861 861 861 860 860 860 860 859 859 858 858 858 857 856 856 856 855 854 853 852 851 850 850 849 849 849 848 846 845 844 842 840 838
850 849 849 848 848 848 848 848 848 849 850 851 852 852 853 854 854 854 854 854 854 854 854 856 857 858 858 858 857 857 858 858 857 857 856 855 854 854 854 855 857 857 857 857 858 858 859 859 859 860 860 860 859 859 859 858 858 858 858 857 857 856 855 856 855 853 853 852 851 850 849 848 847 847 846 845 845 846 844 842 842 842 840 837 835
851 851 850 850 850 851 851 851 851 851 852 852 853 854 855 855 855 855 855 854 853 853 854 856 858 858 859 858 857 857 857 857 857 856 855 854 853 852 853 854 856 856 857 857 857 857 858 858 858 858 858 858 858 857 857 857 856 856 856 856 855 854 854 853 852 851 850 849 848 847 846 845 844 843 842 842 842 842 841 839 839 839 837 835 833
852 853 853 853 853 854 854 854 854 853 853 854 854 854 855 855 855 855 855 854 853 854 856 857 858 859 860 860 858 857 857 856 856 855 855 854 853 852 852 853 854 855 855 855 856 856 857 857 857 857 857 857 856 856 856 856 855 855 855 855 854 853 852 851 850 850 849 847 846 845 844 843 842 841 840 839 838 837 836 836 836 836 834 833 831
853 853 854 854 855 855 855 855 856 855 855 855 855 855 855 855 855 855 856 856 856 858 859 859 859 860 861 860 859 858 857 857 856 855 855 854 852 851 851 851 852 853 853 854 854 855 855 856 856 856 856 855 855 855 854 854 854 854 853 853 853 852 851 849 848 848 847 846 844 843 841 840 839 839 838 837 836 835 834 833 832 831 830 829 828
854 854 854 855 855 856 856 857 857 857 857 856 856 856 857 857 858 858 859 859 860 861 862 862 861 861 860 859 858 858 857 856 855 854 853 852 851 850 850 850 850 851 852 852 853 853 854 855 855 855 854 854 853 853 852 852 851 851 851 851 850 849 849 848 847 846 845 844 843 841 840 839 837 836 835 834 833 833 832 831 830 828 827 826 825
855 855 856 856 857 857 857 858 858 858 858 858 858 858 859 859 860 861 862 862 862 863 862 862 861 860 859 857 856 855 855 854 853 852 852 851 851 850 850 850 850 851 851 851 852 853 853 854 854 853 853 852 852 851 851 850 849 849 848 848 847 847 846 845 845 844 843 842 841 840 838 837 835 834 833 832 831 830 829 828 827 826 825 823 822
856 857 857 857 858 858 859 859 859 859 859 859 859 860 860 861 861 862 862 862 862 862 861 860 859 858 857 856 855 854 854 853 853 853 852 852 851 850 850 850 850 851 851 851 852 852 853 853 853 852 852 851 850 850 849 849 848 847 847 846 845 844 844 844 843 842 841 840 839 837 836 835 834 832 831 830 829 828 827 825 824 823 822 820 818
857 857 858 858 858 859 859 859 859 859 859 860 860 860 861 861 862 862 862 861 861 860 860 859 858 857 857 856 856 855 855 854 854 853 853 852 851 850 850 850 851 852 852 853 853 853 853 853 853 852 851 850 849 849 848 848 847 846 846 845 844 843 843 843 842 841 840 838 837 835 834 833 832 831 829 828 827 826 824 823 821 820 818 817 815
857 857 857 858 858 858 859 859 859 859 859 860 860 860 861 861 861 861 861 861 860 860 859 858 858 857 857 857 857 857 856 856 855 855 854 853 853 852 852 852 853 854 854 855 855 855 854 854 853 852 851 850 849 848 848 847 846 845 844 844 843 843 843 842 841 840 838 837 836 834 832 831 830 829 827 826 825 824 822 820 819 817 816 814 812
856 857 857 857 857 858 858 858 859 859 859 860 860 860 860 861 860 861 860 860 860 860 859 859 859 858 858 858 858 858 858 857 857 856 856 855 855 855 855 855 855 856 856 856 856 855 855 854 853 852 851 850 850 849 848 847 846 845 844 844 843 843 842 841 840 839 838 837 835 833 831 830 828 827 826 824 823 822 820 819 817 815 814 812 810
857 857 858 857 857 857 857 858 858 858 859 859 860 860 861 861 861 861 861 861 860 860 860 860 859 859 859 859 859 859 859 859 859 858 858 857 857 857 857 857 857 856 857 857 856 856 855 854 853 852 851 850 850 849 848 848 847 846 845 844 843 843 841 840 839 838 837 836 834 833 831 830 828 826 825 823 821 820 818 817 815 813 812 810 808
858 859 859 859 859 859 858 858 858 858 859 860 860 860 861 861 861 862 861 861 861 861 861 860 860 860 860 860 860 860 860 860 860 859 859 858 858 858 858 857 857 857 856 856 855 855 854 854 853 852 851 851 850 850 849 848 847 846 845 844 843 842 841 840 839 838 836 835 834 833 831 829 828 826 824 822 820 819 817 815 813 811 810 808 806
859 860 860 860 860 860 859 859 859 859 860 860 861 861 861 861 862 862 862 862 861 861 861 861 861 861 861 861 861 861 861 861 860 860 859 859 859 858 858 857 857 856 856 855 855 855 854 853 853 852 852 851 850 850 849 848 847 846 845 843 843 842 840 840 839 837 835 835 833 832 830 829 827 826 824 822 820 818 816 814 812 810 807 806 804
860 860 861 861 861 861 861 861 860 860 860 860 861 861 862 862 862 862 862 862 861 861 861 861 861 861 861 861 861 861 861 861 860 860 860 859 859 859 858 857 857 856 856 855 855 854 854 853 853 852 852 851 851 850 849 848 847 846 845 843 842 841 840 839 838 836 835 834 833 831 830 828 827 825 824 822 820 818 816 814 811 809 806 804 802
860 860 861 861 862 862 862 861 861 861 861 861 861 861 861 862 862 862 862 862 861 861 861 861 861 861 861 862 862 862 861 861 861 860 860 859 859 859 858 857 857 856 856 855 855 854 854 853 853 852 852 851 851 850 849 849 847 846 844 843 842 841 840 839 838 836 835 834 832 831 830 828 827 825 823 821 819 817 815 813 811 809 806 803 800
859 860 860 861 861 862 862 861 861 861 861 861 861 861 861 861 861 861 862 862 862 862 861 861 861 861 862 862 862 862 862 861 861 860 860 859 859 858 858 857 857 856 855 855 855 854 854 853 853 852 852 851 851 850 849 848 847 846 844 843 841 840 839 838 837 836 835 833 832 831 829 828 826 824 822 820 819 816 814 812 810 808 806 803 800
859 859 860 860 860 861 861 861 861 861 860 860 860 860 860 861 860 861 861 861 861 861 861 861 862 861 862 862 862 861 861 861 860 860 859 859 859 858 858 857 857 856 856 855 855 854 854 853 853 852 852 851 851 850 849 848 847 846 844 843 841 840 839 837 836 835 834 833 831 830 828 827 825 823 821 819 818 816 814 812 809 808 806 804 802
859 859 859 859 860 860 860 860 860 860 860 860 860 860 860 860 860 860 860 860 860 860 861 861 861 861 861 861 861 860 860 860 859 859 859 858 858 858 857 857 856 856 855 855 855 854 854 853 853 852 852 851 850 849 848 847 846 845 843 842 841 840 838 837 836 835 833 832 830 829 827 826 824 823 821 819 817 815 813 811 809 807 806 804 801
859 859 859 859 859 859 860 859 859 859 859 859 859 859 859 859 859 859 859 860 860 859 860 860 860 860 860 860 860 859 859 858 858 858 857 857 857 857 856 856 855 855 855 854 854 854 853 853 852 852 851 851 850 849 848 846 845 844 843 841 840 839 838 836 835 834 832 831 829 828 826 824 823 821 820 818 816 814 812 810 808 807 805 803 801
859 859 859 859 859 859 859 859 859 859 859 859 858 858 858 858 858 858 858 859 859 858 858 859 859 859 858 859 859 858 857 857 856 856 856 856 856 855 855 855 854 854 854 853 853 853 853 852 852 851 851 850 849 848 847 846 845 843 842 841 839 838 837 835 834 833 831 830 828 826 825 823 822 820 818 816 814 813 811 809 807 805 803 801 799
858 858 859 859 859 859 859 859 859 859 859 858 858 858 857 857 857 857 857 857 857 857 857 857 857 857 857 857 857 857 856 855 855 855 855 855 854 854 854 854 854 853 853 853 853 852 852 851 851 850 850 849 848 847 846 845 844 842 841 839 838 837 835 834 832 831 830 828 827 825 824 822 820 819 817 815 813 811 809 808 806 803 801 799 797
857 857 858 858 858 858 858 858 858 858 858 858 857 857 856 856 856 856 856 856 856 856 856 856 856 856 856 856 856 856 855 854 854 854 854 853 853 853 853 852 852 852 852 852 852 851 851 850 850 849 848 847 846 845 844 843 842 841 839 838 836 835 834 832 831 830 828 827 825 824 822 820 819 817 816 814 812 810 807 805 804 802 799 797 795
856 857 857 857 858 858 858 857 857 857 857 857 856 856 855 855 855 854 854 854 855 855 855 855 855 855 855 855 855 855 855 854 853 853 853 852 852 852 852 851 851 851 851 851 850 850 849 849 848 847 847 846 845 844 843 842 840 839 838 836 835 834 832 831 829 828 826 825 824 822 820 819 817 815 814 812 810 808 806 803 801 800 798 795 793
856 856 857 857 857 857 856 856 856 856 856 856 855 855 854 854 853 853 853 854 854 854 854 854 854 854 854 854 854 854 854 853 853 852 852 851 851 851 851 850 850 850 849 849 849 848 848 847 846 846 845 844 843 842 841 840 839 837 836 835 833 832 831 829 828 826 825 823 822 820 818 817 815 813 811 809 808 806 804 801 799 797 795 793 791
855 855 856 856 856 856 855 855 855 855 855 855 854 854 853 853 853 853 853 853 854 854 853 853 854 854 854 853 853 853 853 852 852 851 851 850 850 850 849 849 849 848 848 848 847 847 846 845 845 844 843 843 842 841 840 839 837 836 835 833 832 830 829 827 826 824 823 821 819 818 816 814 813 811 809 807 805 803 801 799 797 795 792 790 788
854 854 854 855 855 854 854 854 854 854 854 854 853 853 853 852 852 852 853 853 853 853 853 853 853 853 853 853 852 852 852 852 851 851 850 850 849 849 848 848 847 847 847 846 846 845 845 844 843 843 842 841 840 839 838 837 836 834 833 832 830 828 827 825 824 822 821 819 817 815 814 812 810 808 806 804 802 800 798 796 794 792 789 787 785
853 853 853 853 853 854 853 853 853 853 853 853 853 852 852 852 852 852 853 853 853 852 853 853 853 853 853 852 852 852 851 851 850 850 850 849 848 848 847 847 846 846 845 845 844 844 843 842 841 841 840 839 838 837 836 835 834 833 831 830 828 827 825 823 822 820 819 817 815 813 811 809 807 805 803 802 799 797 795 793 791 789 786 784 781
852 852 852 852 853 853 853 852 852 852 852 852 853 852 852 852 852 852 852 852 852 852 852 852 852 852 852 852 851 851 851 850 850 849 849 848 848 847 847 846 845 845 844 843 843 842 841 840 839 838 838 837 836 835 834 833 832 830 829 828 826 825 823 822 820 819 817 815 813 811 809 807 805 803 800 799 797 794 792 790 788 786 783 781 778
851 851 851 852 852 852 852 852 852 853 853 853 852 852 852 852 852 852 852 852 851 852 851 851 851 851 851 851 850 850 850 849 849 848 848 847 847 846 846 845 844 844 843 842 841 840 839 839 838 836 835 834 833 832 831 830 829 828 827 826 824 823 821 820 819 817 815 813 811 809 807 804 802 800 797 795 793 791 788 786 784 782 780 778 775
849 850 851 851 852 852 852 853 853 853 853 853 852 852 852 852 852 851 851 851 851 851 851 850 850 850 850 850 849 849 849 848 848 847 847 846 846 845 845 844 843 842 841 840 839 838 838 837 836 834 833 832 831 830 829 827 826 826 824 823 822 821 820 818 816 814 813 811 808 806 804 801 799 797 794 792 790 788 785 783 780 778 776 774 772
848 849 850 851 851 852 852 852 852 852 852 852 852 851 851 851 851 851 851 851 851 850 850 850 850 849 849 849 848 848 848 847 847 846 846 845 844 844 843 842 841 840 839 838 838 837 835 834 833 832 831 830 828 827 826 825 824 823 822 821 820 819 817 815 813 811 809 807 805 803 801 799 796 794 791 788 786 784 781 778 776 774 772 769 767
847 848 849 850 851 851 852 852 852 852 851 851 851 851 851 851 851 851 850 850 850 849 849 849 849 848 848 848 847 847 846 846 845 845 844 843 843 842 841 840 840 839 837 836 835 834 833 832 831 830 828 827 826 825 824 823 822 821 820 819 817 815 814 812 810 808 806 804 802 800 798 796 793 790 787 785 782 779 776 774 771 769 767 764 762
847 848 849 849 850 851 851 851 851 851 851 850 850 850 850 850 850 850 849 849 849 848 848 848 848 847 847 846 846 846 845 844 844 843 842 841 841 840 839 838 838 836 835 834 833 832 831 830 828 827 826 825 824 822 821 820 819 818 817 815 813 812 810 808 806 805 803 801 798 796 794 791 788 785 783 780 778 775 772 769 766 764 762 760 757
846 847 848 848 849 849 850 850 850 849 849 849 849 849 849 849 849 849 848 848 848 847 847 847 846 846 846 845 845 844 843 843 842 841 840 840 839 838 837 837 835 834 833 832 830 829 828 827 826 825 824 822 821 820 819 818 817 815 814 812 810 808 806 805 802 801 799 797 794 791 788 785 783 780 778 776 773 771 768 765 762 760 757 755 752